This is the latest recevied weather packets stored in our database for station/object IK1YPD-13. If no packets are shown the sender has not sent any weather packets the latest 10 day(s).
| Time | Temp. | Humidity | Pressure | Rain* | Wind** | Luminosity | Snow |
|---|---|---|---|---|---|---|---|
| 1787667733 | 27.78° C | 56% | 1008 hPa | - | - | - | - |
| 1787666833 | 27.78° C | 53% | 1008 hPa | - | - | - | - |
| 1787665933 | 27.22° C | 56% | 1008 hPa | - | - | - | - |
| 1787665033 | 27.22° C | 57% | 1008 hPa | - | - | - | - |
| 1787664133 | 27.22° C | 62% | 1007 hPa | - | - | - | - |
| 1787663233 | 26.11° C | 66% | 1008 hPa | - | - | - | - |
| 1787662332 | 27.22° C | 62% | 1008 hPa | - | - | - | - |
| 1787661432 | 27.22° C | 57% | 1008 hPa | - | - | - | - |
| 1787660532 | 27.78° C | 55% | 1007 hPa | - | - | - | - |
| 1787659632 | 27.22° C | 56% | 1007 hPa | - | - | - | - |
| 1787658732 | 27.22° C | 56% | 1008 hPa | - | - | - | - |
| 1787657832 | 27.22° C | 58% | 1008 hPa | - | - | - | - |
| 1787656932 | 27.22° C | 56% | 1008 hPa | - | - | - | - |
| 1787656032 | 27.22° C | 56% | 1007 hPa | - | - | - | - |
| 1787655132 | 26.67° C | 56% | 1007 hPa | - | - | - | - |
| 1787654232 | 27.22° C | 54% | 1007 hPa | - | - | - | - |
| 1787653332 | 27.22° C | 60% | 1007 hPa | - | - | - | - |
| 1787652432 | 26.67° C | 62% | 1007 hPa | - | - | - | - |
| 1787651531 | 26.67° C | 64% | 1007 hPa | - | - | - | - |
| 1787650631 | 26.11° C | 65% | 1007 hPa | - | - | - | - |
| 1787649731 | 25.56° C | 65% | 1007 hPa | - | - | - | - |
| 1787648831 | 26.11° C | 65% | 1007 hPa | - | - | - | - |
| 1787647931 | 25.56° C | 65% | 1007 hPa | - | - | - | - |
| 1787647031 | 25.56° C | 69% | 1007 hPa | - | - | - | - |
| 1787646131 | 24.44° C | 69% | 1007 hPa | - | - | - | - |
* Rain since midnight (hover to see other rain measurements)
** Current wind speed in m/s (hover to see current wind gust speed)